Overview Statistics Trail Chart Weather Telemetry Raw packets
 

This is the latest recevied weather packets stored in our database for station/object R2AKT-13. If no packets are shown the sender has not sent any weather packets the latest 10 day(s).

<< 52 53 54 55 56 57 58 >>
Time Temp. Humidity Pressure Rain* Wind** Luminosity Snow
1787994771 20.56° C 51% 1000.8 hPa - 0 m/s - -
1787994276 20° C 56% 1000.9 hPa - 0 m/s - -
1787993701 19.44° C 56% 1000.9 hPa - 0.45 m/s, 213° - -
1787993202 18.89° C 57% 1000.9 hPa - 0 m/s - -
1787992656 19.44° C 57% 1000.9 hPa - 0.45 m/s, 310° - -
1787992106 19.44° C 57% 1001.1 hPa - 1.34 m/s, 168° - -
1787991556 18.89° C 58% 1001.1 hPa - 0.89 m/s, 199° - -
1787990972 19.44° C 58% 1001.2 hPa - 0 m/s - -
1787990371 18.89° C 60% 1001.3 hPa - 0.45 m/s, 236° - -
1787989886 18.33° C 60% 1001.4 hPa - 0.45 m/s, 168° - -
1787989351 17.78° C 62% 1001.5 hPa - 0 m/s - -
1787988776 16.67° C 64% 1001.5 hPa - 0.45 m/s, 236° - -
1787988175 16.67° C 64% 1001.5 hPa - 2.24 m/s, 180° - -
1787987626 16.67° C 64% 1001.5 hPa - 0.45 m/s, 183° - -
1787987051 16.11° C 65% 1001.6 hPa - 1.79 m/s, 178° - -
1787986454 15.56° C 66% 1001.6 hPa - 1.34 m/s, 187° - -
1787985966 15.56° C 65% 1001.7 hPa - 0.89 m/s, 190° - -
1787985441 15° C 66% 1001.7 hPa - 0.45 m/s, 183° - -
1787984941 15.56° C 65% 1001.7 hPa - 1.34 m/s, 188° - -
1787984441 15° C 66% 1001.7 hPa - 0 m/s - -
1787983941 14.44° C 67% 1001.7 hPa - 0.89 m/s, 192° - -
1787983391 14.44° C 67% 1001.8 hPa - 0.45 m/s, 168° - -
1787982866 14.44° C 68% 1001.8 hPa - 0.45 m/s, 181° - -
1787982301 13.89° C 69% 1001.8 hPa - 1.34 m/s, 168° - -
1787981766 13.89° C 68% 1001.9 hPa - 0.45 m/s, 205° - -

* Rain since midnight (hover to see other rain measurements)
** Current wind speed in m/s (hover to see current wind gust speed)